This is the latest recevied weather packets stored in our database for station/object JS2QVS-13. If no packets are shown the sender has not sent any weather packets the latest 10 day(s).
| Time | Temp. | Humidity | Pressure | Rain* | Wind** | Luminosity | Snow |
|---|---|---|---|---|---|---|---|
| 1777727861 | 20° C | 53% | 1008.6 hPa | 0 mm | - | - | - |
| 1777727261 | 20.56° C | 54% | 1008.5 hPa | 0 mm | - | - | - |
| 1777726661 | 20.56° C | 53% | 1008.6 hPa | 0 mm | - | - | - |
| 1777726062 | 20.56° C | 53% | 1008.7 hPa | 0 mm | - | - | - |
| 1777725461 | 20.56° C | 51% | 1008.7 hPa | 0 mm | - | - | - |
| 1777724890 | 21.11° C | 50% | 1008.5 hPa | 0 mm | - | - | - |
| 1777724261 | 21.11° C | 49% | 1008.6 hPa | 0 mm | - | - | - |
| 1777723062 | 21.11° C | 47% | 1008.6 hPa | 0 mm | - | - | - |
| 1777722463 | 21.11° C | 46% | 1008.5 hPa | 0 mm | - | - | - |
| 1777721862 | 21.67° C | 46% | 1008.3 hPa | 0 mm | - | - | - |
| 1777721262 | 21.67° C | 45% | 1008.3 hPa | 0 mm | - | - | - |
| 1777720662 | 21.67° C | 45% | 1008.1 hPa | 0 mm | - | - | - |
| 1777720062 | 21.67° C | 46% | 1007.9 hPa | 0 mm | - | - | - |
| 1777719462 | 21.67° C | 46% | 1007.8 hPa | 0 mm | - | - | - |
| 1777718862 | 21.67° C | 45% | 1007.6 hPa | 0 mm | - | - | - |
| 1777718262 | 21.67° C | 46% | 1007.3 hPa | 0 mm | - | - | - |
| 1777717662 | 21.11° C | 47% | 1007.3 hPa | 0 mm | - | - | - |
| 1777717062 | 21.11° C | 48% | 1007.1 hPa | 0 mm | - | - | - |
| 1777716461 | 21.11° C | 48% | 1006.8 hPa | 0 mm | - | - | - |
| 1777715861 | 21.11° C | 49% | 1006.6 hPa | 0 mm | - | - | - |
| 1777715261 | 21.11° C | 52% | 1006.5 hPa | 0 mm | - | - | - |
| 1777714663 | 20.56° C | 53% | 1006.4 hPa | 0 mm | - | - | - |
| 1777714063 | 20.56° C | 54% | 1006.2 hPa | 0 mm | - | - | - |
| 1777713463 | 21.11° C | 51% | 1006.2 hPa | 0 mm | - | - | - |
| 1777712863 | 21.11° C | 51% | 1006.1 hPa | 0 mm | - | - | - |
* Rain latest hour (hover to see other rain measurements)
** Current wind speed in m/s (hover to see current wind gust speed)